Regional Weather Roundup
Issued by NWS

Home | Current Version | Previous Version | Graphics & Text | Print | Product List | Glossary On
Versions: 1 2 3 4 5 6 7 8 9 10 11 12 13 14 15 16 17 18 19 20 21 22 23 24 25 26 27 28 29 30 31 32 33 34 35 36 37 38 39 40 41 42 43 44 45 46 47 48 49 50
845
ASUS45 KTFX 210910
RWRMT
MONTANA REGIONAL WEATHER ROUNDUP
NATIONAL WEATHER SERVICE GREAT FALLS MT
300 AM MDT SAT APR 21 2018

NOTE: "FAIR" INDICATES FEW OR NO CLOUDS BELOW 12000 FEET WITH NO
SIGNIFICANT WEATHER AND/OR OBSTRUCTIONS TO VISIBILITY.

MTZ001>007-043-211000-
WEST OF THE DIVIDE

CITY           SKY/WX    TMP DP  RH WIND       PRES   REMARKS
KALISPELL      FAIR      36  32  85 CALM      30.06F
MISSOULA       FAIR      38  29  70 CALM      30.12S
BUTTE          FAIR      32  24  72 SE3       30.15F
MULLAN PASS    MOCLDY    38  29  70 SW8       30.10F
ANACONDA         N/A     36  23  60 SW10      30.13F WCI  28
DEER LODGE       N/A     32  27  80 SW3       30.15F
HAMILTON         N/A     45  27  49 MISG      30.12F
PLAINS           N/A     37  30  76 CALM      30.09F
RONAN            N/A     37  34  87 SE3       30.09F
$$

MTZ008-052>055-211000-
SOUTHWEST MONTANA

CITY           SKY/WX    TMP DP  RH WIND       PRES   REMARKS
BOZEMAN        FAIR      36  28  73 S6        30.11F WCI  31
DILLON         FAIR      36  25  64 S7        30.13S WCI  30
ENNIS          CLEAR     30  25  80 NE5       30.17S
W YELLOWSTONE  FAIR      23  21  93 CALM      30.17S
THREE FORKS      N/A     32  27  82 CALM      30.09S
TWIN BRIDGES     N/A     33  22  64 NE3       30.10S
$$

MTZ009-010-012-014-046-048-049-054-211000-
EAST SLOPES AND CENTRAL MONTANA

CITY           SKY/WX    TMP DP  RH WIND       PRES   REMARKS
CUT BANK       FAIR      38  27  64 SW7       30.00F
GREAT FALLS    FAIR      37  26  64 S10       30.04F WCI  30
HELENA         FAIR      40  28  62 CALM      30.09F
AUGUSTA        FAIR      41  25  52 W5        30.03F
BOWMANS CRNR   FAIR      38  23  55 S10       30.03F WCI  31
CHOTEAU          N/A     41  27  56 SW6       30.04F
FAIRFIELD      FAIR      40  23  52 CALM      30.03F
POWER          FAIR      36  28  73 W9        30.03F WCI  29
RAYNESFORD     FAIR      43  25  49 NE5       30.06F
ULM            FAIR      41  24  51 S12       30.04F
WHITE SULPHUR    N/A     28  25  86 S7        30.10S WCI  21
$$

MTZ011-013-016-021-045-047-050-051-211000-
NORTH CENTRAL MONTANA

CITY           SKY/WX    TMP DP  RH WIND       PRES   REMARKS
HAVRE          FAIR      37  33  85 VRB3      30.02S
LEWISTOWN      FAIR      37  31  78 SE6       30.07F
N BAR RANCH    FAIR      39  30  70 NW3       30.12F
CHINOOK          N/A     43  37  81 E3        30.02F
GEYSER         FAIR      40  28  60 SW13      30.05F
GRASS RANGE    FAIR      42  33  70 CALM      30.04F
STANFORD       FAIR      43  31  64 SW12      30.06F
$$

MTZ017>020-022>027-061-062-211000-
NORTHEAST MONTANA

CITY           SKY/WX    TMP DP  RH WIND       PRES   REMARKS
GLASGOW        FAIR      43  35  73 E14       30.06F
GLENDIVE       FAIR      38  35  89 CALM      30.12F
JORDAN           N/A     37  33  85 CALM      30.06F
MALTA          CLEAR     41  39  93 NE5       30.03F
SIDNEY         FAIR      37  34  89 S3        30.14F
WOLF POINT     FAIR      41  36  82 E6        30.09F
PLENTYWOOD       N/A     39  39 100 CALM      30.11F
POPLAR           N/A     43  36  75 CALM      30.11S
SCOBEY           N/A     43  31  63 E7        30.06F
$$

MTZ028>42-056>058-211000-
SOUTHCENTRAL AND SOUTHEAST MONTANA

CITY           SKY/WX    TMP DP  RH WIND       PRES   REMARKS
BAKER          FAIR      37  37 100 SE17      30.15F WCI  27
BILLINGS       FAIR      43  35  73 W3        30.08F
LIVINGSTON     FAIR      33  29  85 NW9       30.11F WCI  25
MILES CITY     FAIR      42  38  85 SE7       30.08F
BIG TIMBER     CLEAR     37  30  75 W8        30.12F WCI  31
EKALAKA          N/A     36  33  88 SE15      30.10S WCI  27
FORSYTH          N/A     43  37  81 CALM      30.06S
HARLOWTON      FAIR      38  32  78 NW9       30.11S
LAUREL           N/A     43  34  70 W3        30.09F
$$

REGIONAL REPORTS...DAKOTAS

CITY           SKY/WX    TMP DP  RH WIND       PRES   REMARKS
WILLISTON      FAIR      42  37  82 SE6       30.15F
MINOT          FAIR      45  36  70 S15G24    30.19S
DICKINSON      FAIR      37  35  92 S13       30.17F WCI  29
BEACH          MOCLDY    39  39 100 S18       30.17S WCI  30
CROSBY         FAIR      39  39 100 S16       30.14S WCI  30
TIOGA          FAIR      39  39 100 S10       30.17S
WATFORD CITY   FAIR      41  37  87 S12       30.16S
BISMARCK       FAIR      37  34  89 SE9       30.27S WCI  30
GRAND FORKS    FAIR      34  34 100 S9        30.34S WCI  27
FARGO          FAIR      36  33  89 S9        30.36S WCI  29
BUFFALO SD       N/A     42  37  82 S18       30.12F
RAPID CITY     CLOUDY    38  37  97 S14       30.23F WCI  30
$$

REGIONAL REPORTS...WYOMING/IDAHO/WASHINGTON

CITY           SKY/WX    TMP DP  RH WIND       PRES   REMARKS
GILLETTE       CLOUDY    38  35  89 S18       30.15F WCI  28
SHERIDAN       FAIR      36  33  89 S3        30.10F
BUFFALO WY     FAIR      36  33  89 SE13      30.13F WCI  27
CODY           FAIR      43  31  62 SW6       30.12F
YELLOWSTONE LA   N/A     23  20  88 CALM      30.22S
IDAHO FALLS    FAIR      38  30  73 SW8       30.15S
SALMON         FAIR      36  29  75 CALM      30.15S
BOISE            N/A     47  33  58 E8        30.12S
SPOKANE        LGT RAIN  52  31  44 S10       30.08R
$$

REGIONAL REPORTS...ALBERTA

CITY           SKY/WX    TMP DP  RH WIND       PRES   REMARKS
CALGARY        MOCLDY    43  27  52 SW5       29.87F
CARDSTON         N/A     43  28  56 SW7         N/A
EDMONTON       CLEAR     45  23  42 S10       29.85F
FORT MCMURRAY  MOCLDY    39  27  60 SE5       29.91F
HIGH LEVEL     CLEAR     30  23  74 CALM      29.81S
LETHBRIDGE     PTCLDY    41  32  70 S9        29.94F
LLOYDMINSTER   PTCLDY    36  32  87 S2        29.94F
MEDICINE HAT   CLEAR     39  32  75 SW7       29.95F
MILK RIVER       N/A     37  30  75 SE3         N/A
PEACE RIVER    MOCLDY    36  27  69 N6        29.82F WCI  31
PINCHER CREEK  MOCLDY    43  28  56 W10       29.95F
$$

REGIONAL REPORTS...SASKATCHEWAN

CITY           SKY/WX    TMP DP  RH WIND       PRES   REMARKS
CORONACH         N/A     37  34  87 SE8         N/A  WCI  31
ESTEVAN        PTCLDY    41  36  81 S8        30.14S
MOOSE JAW        N/A     34  30  86 E9          N/A  WCI  26
PRINCE ALBERT  PTCLDY    32  30  93 E9        30.02F WCI  24
REGINA         CLEAR     36  32  87 SE10      30.07F WCI  28
ROCKGLEN         N/A     39  32  75 S8          N/A
SASKATOON      PTCLDY    43  37  81 S9        29.97F
SWIFT CURRENT  CLEAR     41  28  60 S12       30.00F
VAL MARIE        N/A     32  28  86 NE5         N/A
$$




USA.gov is the U.S. government's official web portal to all federal, state and local government web resources and services.